Location: Newark
(7.0858°N, 171.3717°E)
Time: 16:18:04
(UTC+00:00)

Altair - Pass Details

Date: 29 November 2020
Orbit: 1501 x 1682 km, 47.2° (Epoch: 20 January)

Event Time Altitude Azimuth Distance (km) Brightness Sun altitude
Exits shadow 14:56:21 12° 47° (NE) 3,501 9.5 -50.3°
Drops below altitude 10° 14:58:52 10° 63° (ENE) 3,710 9.7 -49.7°
Sets 15:04:33 0° 90° (E) 4,736 10.7 -48.4°
